Notices

What's New in latest Release from April 7th, 2021:

- Updated Glossary, including Speed of Maximum Gust, and Total Hourly Precipitation

- Updated national and regional climate services offices contacts and prices information

- Addition of station inventory lists for 1981-2010, 1971-2000, and 1961-1990 Normals.

If you haven't already, please take our survey and provide feedback about our website: https://eccc.sondage-survey.ca/f/LanguageSelection.aspx?s=442ca660-fcf1-47c0-95a9-59707d6fd709

Hourly Data Report for November 23, 2019

EUREKA CLIMATE
NUNAVUT
Current Station Operator: ECCC - MSC

79°59'21.000" N
85°56'02.000" W
10.00 m
2401199
71613
NEK

Download Data

Hourly Data (November 2019)
Hourly Data Report for November 23, 2019
TIME
LST
Temp Definition
°C
Dew Point Definition
°C
Rel Hum Definition
%
Precip. Amount Definition
mm

Wind Dir Definition
10's deg

Wind Spd Definition
km/h
Visibility Definition
km
Stn Press Definition
kPa
Hmdx Definition


Wind Chill Definition


Weather Definition


00:00 -34.0 -37.3 73 0.0 0 1   101.61   -35 LegendNANA
01:00 -33.8 -37.0 72 0.0 7 2   101.59   -36 LegendNANA
02:00 -34.1 -37.4 72 0.0 7 3   101.60   -38 LegendNANA
03:00 -33.8 -37.1 72 0.0 9 4   101.61   -39 LegendNANA
04:00 -34.0 -37.2 73 0.0 2 8   101.61   -43 LegendNANA
05:00 -33.7 -37.0 72 0.0 11 4   101.59   -39 LegendNANA
06:00 -34.2 -37.6 72 0.0 11 6   101.59   -41 LegendNANA
07:00 -34.3 -37.6 72 0.0 11 5   101.56   -41 LegendNANA
08:00 -34.0 -37.3 72 0.0 11 4   101.55   -39 LegendNANA
09:00 -34.6 -38.0 71 0.0 10 5   101.53   -41 LegendNANA
10:00 -34.6 -37.9 72 0.0 4 4   101.53   -40 LegendNANA
11:00 -34.8 -38.1 72 0.0   0   101.52     LegendNANA
12:00 -34.8 -38.2 71 0.0 35 3   101.50   -39 LegendNANA
13:00 -34.3 -37.6 72 0.0   0   101.51     LegendNANA
14:00 -34.9 -38.3 71 0.0 36 4   101.50   -40 LegendNANA
15:00 -34.5 -37.9 71 0.0 8 3   101.49   -38 LegendNANA
16:00 -34.4 -37.8 72 0.0 0 1   101.50   -36 LegendNANA
17:00 -34.3 -37.7 72 0.0 5 2   101.44   -37 LegendNANA
18:00 -32.9 -36.0 73 0.0   0   101.40     LegendNANA
19:00 -32.8 -36.0 73 0.0 11 4   101.34   -38 LegendNANA
20:00 -32.7 -35.8 74 0.0 11 2   101.27   -35 LegendNANA
21:00 -33.1 -36.2 73 0.0 0 1   101.18   -34 LegendNANA
22:00 -32.7 -35.9 73 0.0 10 5   101.11   -39 LegendNANA
23:00 -33.6 -36.8 73 0.0 11 5   101.04   -40 LegendNANA

Notes on Data Quality.

Legend

  • E = Estimated
  • M = Missing
  • NA = Not Available*
  • [empty] = Indicates an unobserved value
Date modified: